Tracking 35237 objects as of 4-Sep-2026
HD Live streaming from Space Station
objects crossing your sky now

SL-8 DEB


SL-8 DEB is no longer on orbit


NORAD ID: 860
Int'l Code: 1964-046G
Launch date: August 18, 1964
Source: Commonwealth of Independent States (former USSR) (CIS)
Launch site: TYURATAM MISSILE AND SPACE COMPLEX (TTMTR)
Decay date: 1964-09-16

Note: This is SATELLITE DEBRIS
Your satellite tracking list
Your tracking list is empty




NASA's NSSDC Master Catalog

Two Line Element Set (TLE):
1 00860U 64046  G 64259.22047351  .00209056 +00000-0 +00000-0 0  9996
2 00860 056.0201 008.1175 0361478 120.8962 242.7079 15.24164138004234
Source of the keplerian elements: AFSPC